DAMPETORP Weather Reports


time (UTC)temp
C
wind
direction
speed
KPH
gust
KPH
rain 1hr
cm
rain 24hr
cm
rain mn
cm
humidity
%
barometer
mb
20260506023052 -3 49 0.0 0.0 0.00 0.00 0.00 91 1010.9
20260506021553 -3 49 0.0 0.0 0.00 0.00 0.00 90 1010.9
20260506020048 -3 49 0.0 0.0 0.00 0.00 0.00 90 1010.8
20260506014550 -3 49 0.0 0.0 0.00 0.00 0.00 90 1010.8
20260506013100 -3 49 0.0 0.0 0.00 0.00 0.00 89 1010.7
20260506011544 -3 49 0.0 1.6 0.00 0.00 0.00 89 1010.7
20260506010042 -3 49 0.0 0.0 0.00 0.00 0.00 88 1010.6
20260506004539 -2 49 0.0 0.0 0.00 0.00 0.00 88 1010.5
20260506003039 -2 49 0.0 0.0 0.00 0.00 0.00 86 1010.4
20260506001538 -2 49 0.0 0.0 0.00 0.00 0.00 86 1010.3
20260506000033 -2 49 0.0 0.0 0.00 0.00 0.00 85 1010.2
20260505234536 -2 49 0.0 0.0 0.00 0.00 0.00 85 1010.2
20260505233029 -2 49 0.0 0.0 0.00 0.00 0.00 84 1010.3
20260505231530 -2 49 0.0 0.0 0.00 0.00 0.00 84 1010.3
20260505230045 -2 49 0.0 0.0 0.00 0.00 0.00 82 1010.2
20260505224524 -1 49 0.0 0.0 0.00 0.00 0.00 82 1010.1
20260505223027 -1 49 0.0 0.0 0.00 0.00 0.00 82 1010.1
20260505221520 -1 49 0.0 0.0 0.00 0.00 0.00 79 1010.1
20260505220016 -1 49 0.0 0.0 0.00 0.00 0.00 78 1009.9
20260505214515 0 49 0.0 1.6 0.00 0.00 0.00 76 1009.8
20260505213012 0 49 0.0 0.0 0.00 0.00 0.00 74 1009.8
20260505211509 0 49 0.0 0.0 0.00 0.00 0.00 72 1009.6
20260505210006 0 49 0.0 1.6 0.00 0.00 0.00 69 1009.5
20260505204503 1 49 0.0 1.6 0.00 0.00 0.00 69 1009.4
20260505203002 1 49 0.0 0.0 0.00 0.00 0.00 67 1009.1
20260505201600 1 49 0.0 1.6 0.00 0.00 0.00 66 1009.0
20260505200059 1 48 0.0 0.0 0.00 0.00 0.00 64 1009.0
20260505194604 2 48 0.0 3.2 0.00 0.00 0.00 60 1008.9
20260505193047 3 84 0.0 1.6 0.00 0.00 0.00 59 1008.8
20260505191544 4 101 0.0 1.6 0.00 0.00 0.00 52 1008.7
20260505190045 5 133 0.0 1.6 0.00 0.00 0.00 49 1008.6
20260505184540 6 133 0.0 1.6 0.00 0.00 0.00 42 1008.5
20260505183038 7 133 0.0 1.6 0.00 0.00 0.00 37 1008.3
20260505181537 8 133 0.0 3.2 0.00 0.00 0.00 35 1008.1
20260505180136 8 78 1.6 6.4 0.00 0.00 0.00 34 1008.0
20260505174534 8 124 4.8 9.7 0.00 0.00 0.00 32 1007.9
20260505173042 8 118 3.2 14.5 0.00 0.00 0.00 32 1007.9
20260505171534 8 142 3.2 14.5 0.00 0.00 0.00 31 1007.8
20260505170037 9 166 1.6 12.9 0.00 0.00 0.00 32 1007.7
20260505164547 9 14 4.8 16.1 0.00 0.00 0.00 31 1007.7
20260505163031 10 82 3.2 19.3 0.00 0.00 0.00 30 1007.7
20260505161529 10 25 8.0 20.9 0.00 0.00 0.00 30 1007.7
20260505153035 10 153 9.7 16.1 0.00 0.00 0.00 30 1007.6
20260505151525 10 148 4.8 22.5 0.00 0.00 0.00 31 1007.6
20260505124514 9 129 4.8 20.9 0.00 0.00 0.00 34 1007.5
20260505123012 8 75 9.7 17.7 0.00 0.00 0.00 34 1007.5
20260505121511 9 338 8.0 22.5 0.00 0.00 0.00 35 1007.6
20260505120010 8 9 3.2 17.7 0.00 0.00 0.00 39 1007.4
20260505114510 9 44 3.2 17.7 0.00 0.00 0.00 37 1007.2
20260505113007 8 131 3.2 16.1 0.00 0.00 0.00 37 1007.2
20260505111507 9 34 3.2 17.7 0.00 0.00 0.00 38 1007.1
20260505101604 8 130 8.0 19.3 0.00 0.00 0.00 38 1006.9
20260505100059 8 100 4.8 20.9 0.00 0.00 0.00 40 1006.6
20260505094606 8 143 9.7 16.1 0.00 0.00 0.00 41 1006.6
20260505093055 8 105 8.0 16.1 0.00 0.00 0.00 41 1006.6
20260505091558 8 65 9.7 24.1 0.00 0.00 0.00 41 1006.6
20260505090056 8 96 4.8 20.9 0.00 0.00 0.00 46 1006.5
20260505084549 8 86 6.4 29.0 0.00 0.00 0.00 46 1006.4
20260505083048 8 121 4.8 17.7 0.00 0.00 0.00 46 1006.4
20260505081556 7 108 9.7 20.9 0.00 0.00 0.00 49 1006.2
20260505080046 7 53 4.8 16.1 0.00 0.00 0.00 50 1006.2
20260505074554 7 150 3.2 16.1 0.00 0.00 0.00 53 1006.0
20260505073036 7 97 3.2 16.1 0.00 0.00 0.00 54 1006.0
20260505071633 7 62 6.4 19.3 0.00 0.00 0.00 55 1005.9
20260505070032 6 53 4.8 19.3 0.00 0.00 0.00 57 1005.7
20260505064533 6 165 6.4 16.1 0.00 0.00 0.00 58 1005.7
20260505063035 6 138 3.2 19.3 0.00 0.00 0.00 61 1005.6
20260505061532 6 145 3.2 12.9 0.00 0.00 0.00 64 1005.5
20260505060027 6 34 3.2 12.9 0.00 0.00 0.00 65 1005.4
20260505054528 6 115 6.4 16.1 0.00 0.00 0.00 65 1005.3
20260505053022 6 121 3.2 14.5 0.00 0.00 0.00 67 1005.2
20260505051520 5 143 3.2 12.9 0.00 0.00 0.00 67 1005.1
20260505041514 5 53 1.6 6.4 0.00 0.05 0.00 70 1004.7
20260505040012 5 61 1.6 8.0 0.00 0.08 0.00 70 1004.5
20260505034514 4 143 1.6 8.0 0.00 0.08 0.00 70 1004.4
20260505033018 4 147 0.0 8.0 0.00 0.08 0.00 72 1004.3
20260505031507 4 139 1.6 6.4 0.00 0.08 0.00 72 1004.2
20260505030005 4 133 1.6 6.4 0.00 0.18 0.00 73 1004.2
20260505024506 4 105 0.0 3.2 0.00 0.18 0.00 72 1004.1